Printer-friendly version

IAU Minor Planet Center

Minor Planet Center

117P/Helin-Roman-Alu

Orbital Elements

The following orbital elements are taken from MPC 45658:
117P/Helin-Roman-Alu
Epoch 2005 Dec. 16.0 TT = JDT 2453720.5
T 2005 Dec. 19.9071 TT                                  MPC
q   3.036972             (2000.0)            P               Q
n   0.1196072      Peri.  222.6710      +0.1945786      +0.9722749
a   4.079727       Node    58.9404      -0.8541888      +0.2329553
e   0.255594       Incl.    8.7081      -0.4821832      -0.0203323
P   8.24
From 191 observations 1988-1999, mean residual 0".7.
Elements are also available for the current standard epoch:
117P/Helin-Roman-Alu
Epoch 2010 Jan. 4.0 TT = JDT 2455200.5
T 2005 Dec. 20.8060 TT                                  MPC
q   3.044608             (2000.0)            P               Q
n   0.1192778      Peri.  223.0283      +0.2004915      +0.9710875
a   4.087234       Node    58.9311      -0.8527856      +0.2380951
e   0.255093       Incl.    8.7015      -0.4822447      -0.0173134
P   8.26
An explanation of the orbital elements is available.

These orbital elements are also available in forms suitable for loading into a number of popular planetarium-type software programs.


Ephemeris

The following ephemeris is at intervals of five days. A daily ephemeris covering the same time interval is also available.

Personalized ephemerides for this (and other) objects may be generated using the Minor Planet & Comet Ephemeris Service.

Recent magnitude estimates for this comet (as reported to the ICQ) may be available.

Date    TT    R. A. (2000) Decl.     Delta      r     Elong.  Phase   m1    m2

WARNING!

This comet gets close to the sun during the period covered in the ephemeris below. Observers are warned to be wary of observing comets near the sun. NEVER point any kind of optical instrument at the sun--instant blindness will be the probable result.

2009 10 26 07 06.65 +28 02.3 4.723 5.114 107.8 10.7 20.0 21.6 2009 10 31 07 06.75 +28 10.4 4.650 5.116 112.7 10.3 20.0 21.5 2009 11 05 07 06.47 +28 19.2 4.580 5.117 117.8 9.9 20.0 21.5 2009 11 10 07 05.80 +28 28.5 4.513 5.119 122.9 9.3 20.0 21.4 2009 11 15 07 04.73 +28 38.4 4.449 5.120 128.1 8.7 19.9 21.4 2009 11 20 07 03.28 +28 48.5 4.391 5.121 133.4 8.1 19.9 21.3 2009 11 25 07 01.46 +28 59.0 4.338 5.122 138.8 7.3 19.9 21.3 2009 11 30 06 59.29 +29 09.4 4.290 5.123 144.3 6.5 19.9 21.2 2009 12 05 06 56.79 +29 19.7 4.248 5.124 149.8 5.6 19.8 21.1 2009 12 10 06 54.00 +29 29.8 4.214 5.125 155.3 4.6 19.8 21.1 2009 12 15 06 50.97 +29 39.3 4.186 5.126 160.7 3.6 19.8 21.0 2009 12 20 06 47.73 +29 48.1 4.166 5.126 166.0 2.7 19.8 20.9 2009 12 25 06 44.36 +29 56.1 4.154 5.127 170.6 1.8 19.8 20.9 2009 12 30 06 40.90 +30 03.0 4.150 5.128 173.0 1.3 19.8 20.8 2010 01 04 06 37.43 +30 08.9 4.154 5.128 171.3 1.7 19.8 20.9 2010 01 09 06 34.01 +30 13.7 4.166 5.129 166.9 2.5 19.8 20.9 2010 01 14 06 30.69 +30 17.2 4.186 5.129 161.7 3.4 19.8 21.0 2010 01 19 06 27.54 +30 19.6 4.213 5.129 156.3 4.4 19.8 21.1 2010 01 24 06 24.62 +30 20.9 4.248 5.130 150.8 5.4 19.8 21.1 2010 01 29 06 21.97 +30 21.2 4.289 5.130 145.3 6.3 19.9 21.2 2010 02 03 06 19.63 +30 20.6 4.337 5.130 139.9 7.1 19.9 21.3 2010 02 08 06 17.64 +30 19.1 4.391 5.130 134.5 7.9 19.9 21.3 2010 02 13 06 16.01 +30 17.0 4.449 5.130 129.1 8.6 19.9 21.4 2010 02 18 06 14.77 +30 14.3 4.513 5.130 123.9 9.2 20.0 21.4 2010 02 23 06 13.93 +30 11.2 4.581 5.129 118.7 9.7 20.0 21.5 2010 02 28 06 13.49 +30 07.7 4.651 5.129 113.6 10.2 20.0 21.5 2010 03 05 06 13.44 +30 04.0 4.725 5.129 108.6 10.6 20.1 21.6 2010 03 10 06 13.78 +30 00.0 4.801 5.128 103.7 10.8 20.1 21.6 2010 03 15 06 14.51 +29 55.9 4.878 5.128 99.0 11.0 20.1 21.7 2010 03 20 06 15.60 +29 51.7 4.957 5.127 94.2 11.2 20.2 21.7 2010 03 25 06 17.04 +29 47.3 5.035 5.127 89.6 11.2 20.2 21.8 2010 03 30 06 18.82 +29 42.9 5.114 5.126 85.1 11.2 20.2 21.8 2010 04 04 06 20.91 +29 38.5 5.192 5.125 80.7 11.1 20.3 21.8 2010 04 09 06 23.30 +29 33.9 5.269 5.125 76.3 10.9 20.3 21.8 2010 04 14 06 25.97 +29 29.2 5.344 5.124 72.0 10.7 20.3 21.9 2010 04 19 06 28.90 +29 24.4 5.418 5.123 67.8 10.5 20.4 21.9 2010 04 24 06 32.07 +29 19.4 5.489 5.122 63.6 10.1 20.4 21.9 2010 04 29 06 35.46 +29 14.2 5.557 5.120 59.5 9.8 20.4 21.9 2010 05 04 06 39.06 +29 08.8 5.623 5.119 55.5 9.3 20.4 21.9 2010 05 09 06 42.84 +29 03.2 5.685 5.118 51.5 8.9 20.5 21.9 2010 05 14 06 46.80 +28 57.3 5.743 5.117 47.6 8.4 20.5 21.9 2010 05 19 06 50.91 +28 51.1 5.798 5.115 43.7 7.9 20.5 21.9 2010 05 24 06 55.16 +28 44.7 5.849 5.114 39.9 7.3 20.5 21.9 2010 05 29 06 59.53 +28 37.9 5.896 5.112 36.1 6.7 20.5 21.9 2010 06 03 07 04.01 +28 30.7 5.938 5.111 32.4 6.1 20.5 21.9 2010 06 08 07 08.58 +28 23.2 5.976 5.109 28.7 5.5 20.5 21.9 2010 06 13 07 13.25 +28 15.4 6.009 5.107 25.0 4.8 20.6 21.8 2010 06 18 07 17.98 +28 07.1 6.037 5.105 21.4 4.2 20.6 21.8 2010 06 23 07 22.77 +27 58.6 6.061 5.103 17.9 3.5 20.6 21.8 2010 06 28 07 27.60 +27 49.7 6.079 5.101 14.5 2.9 20.6 21.8 2010 07 03 07 32.47 +27 40.4 6.093 5.099 11.3 2.2 20.6 21.7 2010 07 08 07 37.36 +27 30.9 6.101 5.097 8.4 1.7 20.6 21.7 2010 07 13 07 42.27 +27 21.0 6.104 5.095 6.3 1.3 20.6 21.6 2010 07 18 07 47.17 +27 10.9 6.102 5.093 6.1 1.2 20.6 21.6 2010 07 23 07 52.07 +27 00.6 6.095 5.090 7.8 1.6 20.6 21.7 2010 07 28 07 56.94 +26 50.1 6.083 5.088 10.6 2.1 20.6 21.7 2010 08 02 08 01.79 +26 39.4 6.066 5.086 13.8 2.7 20.5 21.7 2010 08 07 08 06.60 +26 28.6 6.043 5.083 17.2 3.4 20.5 21.8 2010 08 12 08 11.35 +26 17.8 6.016 5.080 20.7 4.0 20.5 21.8 2010 08 17 08 16.05 +26 07.0 5.984 5.078 24.3 4.7 20.5 21.8 2010 08 22 08 20.67 +25 56.2 5.947 5.075 27.9 5.4 20.5 21.8 2010 08 27 08 25.20 +25 45.7 5.905 5.072 31.6 6.0 20.5 21.9 2010 09 01 08 29.65 +25 35.3 5.858 5.069 35.4 6.6 20.4 21.9 2010 09 06 08 33.99 +25 25.2 5.808 5.066 39.2 7.2 20.4 21.9 2010 09 11 08 38.21 +25 15.5 5.753 5.063 43.0 7.8 20.4 21.9 2010 09 16 08 42.30 +25 06.3 5.694 5.060 46.9 8.3 20.4 21.9 2010 09 21 08 46.24 +24 57.7 5.631 5.057 50.8 8.9 20.3 21.9 2010 09 26 08 50.03 +24 49.7 5.565 5.054 54.8 9.3 20.3 21.9 2010 10 01 08 53.65 +24 42.5 5.495 5.050 58.9 9.8 20.3 21.9 2010 10 06 08 57.08 +24 36.2 5.422 5.047 63.0 10.2 20.2 21.8 2010 10 11 09 00.32 +24 30.8 5.347 5.043 67.1 10.5 20.2 21.8 2010 10 16 09 03.34 +24 26.5 5.269 5.040 71.4 10.8 20.2 21.8 2010 10 21 09 06.12 +24 23.4 5.190 5.036 75.7 11.0 20.1 21.8 2010 10 26 09 08.66 +24 21.6 5.108 5.033 80.0 11.2 20.1 21.7 2010 10 31 09 10.93 +24 21.1 5.026 5.029 84.5 11.3 20.0 21.7 2010 11 05 09 12.93 +24 22.2 4.943 5.025 89.0 11.4 20.0 21.7 2010 11 10 09 14.62 +24 24.7 4.860 5.021 93.6 11.4 19.9 21.6 2010 11 15 09 15.99 +24 28.9 4.777 5.017 98.3 11.3 19.9 21.6 2010 11 20 09 17.04 +24 34.7 4.696 5.013 103.1 11.1 19.9 21.5 2010 11 25 09 17.73 +24 42.2 4.615 5.009 108.0 10.8 19.8 21.5 2010 11 30 09 18.07 +24 51.3 4.537 5.005 112.9 10.5 19.8 21.4

Valid HTML 4.01!